Tracking 19634 objects as of 21-May-2019
HD Live streaming from Space Station
objects crossing your sky now

RADUGA 23

Track RADUGA 23 now!
RADUGA 23 is classified as:


NORAD ID: 19928
Int'l Code: 1989-030A
Perigee: 35,741.6 km
Apogee: 35,886.3 km
Inclination: 14.5 °
Period: 1,437.1 minutes
Semi major axis: 42184 km
RCS: 3.1622 m2 (large)
Launch date: April 14, 1989
Source: Commonwealth of Independent States (former USSR) (CIS)
Launch site: TYURATAM MISSILE AND SPACE COMPLEX (TTMTR)
aabbcc
Your satellite tracking list
Your tracking list is empty




NASA's NSSDC Master Catalog

Two Line Element Set (TLE):
1 19928U 89030A   19140.17623556  .00000083  00000-0  00000+0 0  9999
2 19928  14.5209 352.8145 0017149 126.7581 230.5005  1.00199722108928
Source of the keplerian elements: AFSPC